Location: Unspecified
(0.0000°N, 0.0000°E)
Time: 16:24:11
(UTC+00:00)

Vanguard 1 Rocket - Visible Passes

Search period start: 19 October 2020 00:00
Search period end: 29 October 2020 00:00
Orbit: 656 x 4221 km, 34.3° (Epoch: 18 October)

Date Brightness Start Highest point End Pass type
(mag) Time Alt. Az. Time Alt. Az. Time Alt. Az.
19 Oct 11.3 00:15:43 10° WSW 00:38:00 29° SSW 00:54:52 10° SSE visible
19 Oct 11.4 03:04:23 10° SW 03:15:44 16° S 03:24:25 10° SSE visible
19 Oct 10.1 18:02:14 10° NNW 18:13:43 39° NE 18:33:18 10° ESE visible
19 Oct 10.1 20:26:51 10° NW 20:44:00 83° SW 20:54:47 47° SE visible
19 Oct 11.1 22:58:08 10° W 23:28:07 33° S 23:41:43 10° SE visible
20 Oct 11.5 01:45:03 12° SW 01:58:27 19° SSW 02:11:14 10° SSE visible
20 Oct 11.1 04:25:57 10° SSW 04:36:17 18° S 04:43:32 10° SE visible
20 Oct 9.9 19:15:24 10° NW 19:29:40 73° NE 19:52:28 14° ESE visible
20 Oct 10.7 21:43:12 10° WNW 22:02:31 53° SSW 22:27:54 10° SE visible
21 Oct 11.4 00:21:16 10° WSW 00:40:34 25° SSW 00:57:59 10° SSE visible
21 Oct 11.4 03:08:21 10° SW 03:20:39 17° S 03:29:43 10° SE visible
21 Oct 9.9 18:04:54 10° NNW 18:16:26 48° NE 18:37:12 10° ESE visible
21 Oct 10.3 20:30:09 10° WNW 20:46:53 71° SW 21:13:12 10° SE visible
21 Oct 11.2 23:02:51 10° W 23:22:52 33° SSW 23:44:25 10° SSE visible
22 Oct 11.5 01:48:02 10° SW 02:03:29 19° S 02:15:39 10° SSE visible
22 Oct 10.9 04:28:02 10° SSW 04:40:40 23° SSE 04:48:48 10° ESE visible
22 Oct 9.9 19:18:25 10° NW 19:32:23 86° NE 19:57:30 10° SE visible
22 Oct 10.9 21:47:13 10° W 22:05:55 44° SSW 22:30:19 10° SE visible
23 Oct 11.5 00:27:03 10° WSW 00:45:17 23° SSW 01:01:33 10° SSE visible
23 Oct 11.3 03:11:30 10° SSW 03:25:25 20° S 03:35:09 10° SE visible
23 Oct 9.7 18:07:42 10° NW 18:19:05 60° NE 18:40:38 10° ESE visible
23 Oct 10.5 20:33:41 10° WNW 20:49:59 59° SSW 21:15:35 10° SE visible
23 Oct 11.4 23:07:59 10° WSW 23:27:05 29° SSW 23:47:20 10° SSE visible
24 Oct 11.5 01:52:48 10° SW 02:08:33 19° S 02:20:39 10° SE visible
24 Oct 10.7 04:30:06 10° SW 04:44:51 29° SSE 04:53:35 10° ESE visible
24 Oct 10.0 19:21:38 10° WNW 19:35:15 79° SW 20:00:04 10° SE visible
24 Oct 11.1 21:51:37 10° W 22:09:39 37° SSW 22:32:49 10° SE visible
25 Oct 11.6 00:32:43 10° SW 00:50:19 21° S 01:05:42 10° SE visible
25 Oct 11.1 03:14:08 10° SSW 03:30:00 24° SSE 03:40:24 10° ESE visible
25 Oct 9.6 18:10:39 10° NW 18:21:48 74° NE 18:43:41 10° ESE visible
25 Oct 10.7 20:37:31 10° W 20:53:22 49° SSW 21:17:54 10° SE visible
25 Oct 11.5 23:13:26 10° WSW 23:31:41 25° SSW 23:50:38 10° SE visible
26 Oct 11.4 01:56:43 10° SW 02:13:31 21° S 02:25:57 10° SE visible
26 Oct 10.4 04:32:10 10° SW 04:48:48 38° SSE 04:57:57 10° E visible
26 Oct 10.2 19:25:03 10° WNW 19:38:21 65° SSW 20:02:27 10° SE visible
26 Oct 11.3 21:56:24 10° WSW 22:13:44 31° SSW 22:35:30 10° SE visible
27 Oct 11.6 00:37:56 10° SW 00:55:29 21° S 01:10:28 10° SE visible
27 Oct 11.0 03:16:30 10° SW 03:34:17 30° SSE 03:45:18 10° ESE visible
27 Oct 9.6 18:13:46 10° NW 18:24:40 90° SW 18:46:26 10° SE visible
27 Oct 10.9 20:41:40 10° W 20:57:02 40° SSW 21:20:13 10° SE visible
27 Oct 11.6 23:18:59 10° SW 23:36:38 23° S 23:54:29 10° SE visible
28 Oct 11.3 01:59:56 10° SW 02:18:16 25° SSE 02:31:15 10° ESE visible
28 Oct 10.1 04:34:18 10° SW 04:52:30 50° SSE 05:01:57 10° ENE visible
28 Oct 10.4 19:28:44 10° WNW 19:41:42 53° SSW 20:04:43 10° SE visible
28 Oct 11.5 22:01:32 10° WSW 22:18:11 27° SSW 22:38:30 10° SE visible
